Weather History for Salinas, CA

Change the Weather History Date:

Sunday, April 21, 2013

  Actual Average Record
Temperature  
Mean Temperature 66 °F 57 °F  
Max Temperature 86 °F 68 °F 99 °F (2009)
Min Temperature 45 °F 47 °F 33 °F (1932)
Degree Days  
Heating Degree Days 0 8  
Month to date heating degree days 153 186  
Since 1 July heating degree days 2188 2320  
Cooling Degree Days 1 0  
Month to date cooling degree days 1 0  
Year to date cooling degree days 1 1  
Growing Degree Days 14 (Base 50)    
Moisture  
Dew Point 45 °F    
Average Humidity 57    
Maximum Humidity 86    
Minimum Humidity 28    
Precipitation  
Precipitation T in 0.03 in 0.50 in (1955)
Month to date precipitation 0.27 0.74  
Year to date precipitation 2.28 8.09  
Since 1 July precipitation 8.92 12.20  
Sea Level Pressure  
Sea Level Pressure 30.01 in    
Wind  
Wind Speed 6 mph (NW)    
Max Wind Speed 18 mph    
Max Gust Speed 22 mph    
Visibility 9 miles    
Events      
T = Trace of Precipitation, MM = Missing Value Source: NWS Daily Summary

Daily Weather History Graph

Daily Weather History Graph

Search for Another Location

Airport:

Trip Planner

Search our weather history database for the weather conditions in past years. The results will help you decide how hot, cold, wet, or windy it might be!

Date:

Astronomy

Apr. 21, 2013 Rise Set
Actual Time 6:24 AM PDT 7:46 PM PDT
Civil Twilight 5:57 AM PDT 8:13 PM PDT
Nautical Twilight 5:24 AM PDT 8:45 PM PDT
Astronomical Twilight 4:51 AM PDT 9:19 PM PDT
Moon 3:43 PM PDT (4/21) 3:42 AM PDT (4/21)
Length of Visible Light 14h 16m
Length of Day
13h 22m
Waxing Gibbous, 81% of the Moon is Illuminated
Apr 21
Waxing Gibbous
Apr 25
Full
May 2
Last Quarter
May 9
New
May 17
First Quarter

Hourly Weather History & Observations

Time (PDT) Temp. Windchill Dew Point Humidity Pressure Visibility Wind Dir Wind Speed Gust Speed Precip Events Conditions
12:53 AM 51.1 °F - 46.0 °F 83% 30.06 in 7.0 mi Calm Calm - N/A   Clear
1:53 AM 50.0 °F - 46.0 °F 86% 30.05 in 7.0 mi Calm Calm - N/A   Clear
2:53 AM 48.0 °F - 44.1 °F 86% 30.03 in 7.0 mi Calm Calm - N/A   Clear
3:53 AM 46.9 °F - 43.0 °F 86% 30.02 in 8.0 mi Calm Calm - N/A   Clear
4:53 AM 46.0 °F 43.9 °F 42.1 °F 86% 30.01 in 8.0 mi ESE 4.6 mph - N/A   Clear
5:53 AM 46.0 °F - 42.1 °F 86% 30.01 in 8.0 mi Calm Calm - N/A   Clear
6:53 AM 48.0 °F - 43.0 °F 83% 30.02 in 8.0 mi East 4.6 mph - N/A   Clear
7:53 AM 53.1 °F - 43.0 °F 69% 30.05 in 10.0 mi East 6.9 mph - N/A   Clear
8:53 AM 60.1 °F - 43.0 °F 53% 30.05 in 10.0 mi ESE 8.1 mph - N/A   Clear
9:53 AM 66.0 °F - 44.1 °F 45% 30.05 in 10.0 mi ESE 5.8 mph - N/A   Clear
10:53 AM 72.0 °F - 43.0 °F 35% 30.05 in 10.0 mi Calm Calm - N/A   Clear
11:53 AM 79.0 °F - 43.0 °F 28% 30.03 in 10.0 mi Calm Calm - N/A   Clear
12:53 PM 81.0 °F - 48.9 °F 33% 30.00 in 10.0 mi West 15.0 mph - N/A   Clear
1:53 PM 73.9 °F - 48.0 °F 40% 30.00 in 10.0 mi West 17.3 mph - N/A   Clear
2:53 PM 71.1 °F - 48.0 °F 44% 30.00 in 9.0 mi WNW 13.8 mph - N/A   Clear
3:53 PM 69.1 °F - 48.9 °F 49% 29.99 in 9.0 mi West 10.4 mph - 0.00 in   Clear
4:53 PM 68.0 °F - 48.0 °F 49% 29.99 in 8.0 mi WNW 10.4 mph - N/A   Clear
5:53 PM 68.0 °F - 46.9 °F 47% 29.98 in 9.0 mi WNW 9.2 mph - N/A   Clear
6:53 PM 66.9 °F - 46.0 °F 47% 29.97 in 9.0 mi NW 8.1 mph - N/A   Clear
7:53 PM 64.9 °F - 45.0 °F 48% 29.97 in 10.0 mi NNW 10.4 mph - N/A   Clear
8:53 PM 61.0 °F - 45.0 °F 56% 29.98 in 9.0 mi WNW 6.9 mph - N/A   Clear
9:53 PM 59.0 °F - 45.0 °F 60% 30.00 in 9.0 mi Calm Calm - N/A   Clear
10:53 PM 55.9 °F - 46.9 °F 72% 30.00 in 8.0 mi Calm Calm - N/A   Clear
11:53 PM 54.0 °F - 45.0 °F 72% 29.99 in 8.0 mi Calm Calm - N/A   Clear